Location: Bluff Heights
(33.7692°N, 118.1592°W)
Time: 14:08:39
(UTC+00:00)

Vanguard 1 Rocket - Pass Details

Date: 30 September 2021
Orbit: 650 x 4226 km, 34.3° (Epoch: 21 October)

Event Time Altitude Azimuth Distance (km) Brightness Sun altitude
Rises 02:33:30 0° 238° (WSW) 3,231 11.2 -12.1°
Reaches altitude 10° 02:36:07 10° 232° (SW) 2,138 10.0 -12.7°
Maximum altitude 02:40:28 46° 159° (SSE) 870 7.1 -13.6°
Enters shadow 02:43:02 22° 95° (E) 1,458 7.8 -14.1°
